Time,TemperatureF,DewpointF,PressureIn,WindDirection,WindDirectionDegrees,WindSpeedMPH,WindSpeedGustMPH,Humidity,HourlyPrecipIn,Conditions,Clouds,dailyrainin,SoftwareType,DateUTC
2013-02-16 00:01:00,41.4,40.0,29.98,NNW,342,0.0,1.0,95,0.00,,,0.00,weatherlink.com 1.10,2013-02-16 05:01:00,
2013-02-16 00:16:00,40.9,39.0,29.98,NNW,332,1.0,1.0,94,0.00,,,0.00,weatherlink.com 1.10,2013-02-16 05:16:00,
2013-02-16 00:31:00,40.8,40.0,29.98,NW,321,0.0,1.0,95,0.00,,,0.00,weatherlink.com 1.10,2013-02-16 05:31:00,
2013-02-16 00:46:00,40.4,39.0,29.97,NW,321,0.0,0.0,95,0.00,,,0.00,weatherlink.com 1.10,2013-02-16 05:46:00,
2013-02-16 01:01:00,40.7,39.0,29.97,NW,321,0.0,1.0,95,0.00,,,0.00,weatherlink.com 1.10,2013-02-16 06:01:00,
2013-02-16 01:16:00,40.6,39.0,29.96,NW,321,0.0,0.0,95,0.00,,,0.00,weatherlink.com 1.10,2013-02-16 06:16:00,
2013-02-16 01:31:00,39.9,39.0,29.95,NW,321,0.0,0.0,95,0.00,,,0.00,weatherlink.com 1.10,2013-02-16 06:31:00,
2013-02-16 01:46:00,40.1,39.0,29.95,NW,316,1.0,1.0,96,0.00,,,0.00,weatherlink.com 1.10,2013-02-16 06:46:00,
2013-02-16 02:01:00,39.9,39.0,29.94,NW,307,1.0,2.0,95,0.00,,,0.00,weatherlink.com 1.10,2013-02-16 07:01:00,
2013-02-16 02:16:00,39.6,39.0,29.93,NW,309,1.0,2.0,96,0.00,,,0.00,weatherlink.com 1.10,2013-02-16 07:16:00,
2013-02-16 02:31:00,39.6,39.0,29.93,NW,304,1.0,1.0,96,0.00,,,0.00,weatherlink.com 1.10,2013-02-16 07:31:00,
2013-02-16 02:46:00,39.9,39.0,29.93,WNW,303,1.0,1.0,96,0.00,,,0.00,weatherlink.com 1.10,2013-02-16 07:46:00,
2013-02-16 03:01:00,40.3,39.0,29.93,NW,312,1.0,2.0,96,0.00,,,0.00,weatherlink.com 1.10,2013-02-16 08:01:00,
2013-02-16 03:16:00,40.4,39.0,29.93,NW,309,1.0,2.0,96,0.00,,,0.00,weatherlink.com 1.10,2013-02-16 08:16:00,
2013-02-16 03:31:00,40.1,39.0,29.93,NW,314,1.0,2.0,95,0.00,,,0.00,weatherlink.com 1.10,2013-02-16 08:31:00,
2013-02-16 03:46:00,40.3,39.0,29.93,WNW,295,0.0,3.0,96,0.00,,,0.00,weatherlink.com 1.10,2013-02-16 08:46:00,
2013-02-16 04:01:00,40.4,39.0,29.93,WNW,302,1.0,1.0,95,0.00,,,0.00,weatherlink.com 1.10,2013-02-16 09:01:00,
2013-02-16 04:16:00,40.6,39.0,29.92,WNW,290,0.0,1.0,95,0.00,,,0.00,weatherlink.com 1.10,2013-02-16 09:16:00,
2013-02-16 04:31:00,40.3,39.0,29.92,ENE,65,0.0,1.0,95,0.00,,,0.00,weatherlink.com 1.10,2013-02-16 09:31:00,
2013-02-16 04:46:00,40.4,39.0,29.91,NW,305,0.0,1.0,95,0.00,,,0.00,weatherlink.com 1.10,2013-02-16 09:46:00,
2013-02-16 05:01:00,40.8,40.0,29.91,NW,309,0.0,2.0,95,0.00,,,0.00,weatherlink.com 1.10,2013-02-16 10:01:00,
2013-02-16 05:17:00,40.8,39.0,29.91,NW,313,1.0,2.0,94,0.00,,,0.00,weatherlink.com 1.10,2013-02-16 10:17:00,
2013-02-16 05:32:00,40.6,39.0,29.90,NW,308,1.0,2.0,94,0.00,,,0.00,weatherlink.com 1.10,2013-02-16 10:32:00,
2013-02-16 05:46:00,40.2,38.0,29.90,WNW,298,0.0,2.0,93,0.00,,,0.00,weatherlink.com 1.10,2013-02-16 10:46:00,
2013-02-16 06:02:00,39.8,38.0,29.89,NW,314,0.0,3.0,93,0.00,,,0.00,weatherlink.com 1.10,2013-02-16 11:02:00,
2013-02-16 06:17:00,39.3,38.0,29.89,NW,316,0.0,4.0,93,0.00,,,0.00,weatherlink.com 1.10,2013-02-16 11:17:00,
2013-02-16 06:32:00,38.9,37.0,29.90,WNW,295,1.0,3.0,93,0.00,,,0.00,weatherlink.com 1.10,2013-02-16 11:32:00,
2013-02-16 06:46:00,38.6,37.0,29.91,West,279,0.0,2.0,93,0.00,,,0.00,weatherlink.com 1.10,2013-02-16 11:46:00,
2013-02-16 07:02:00,38.1,36.0,29.91,NNE,13,0.0,1.0,93,0.00,,,0.00,weatherlink.com 1.10,2013-02-16 12:02:00,
2013-02-16 07:17:00,37.9,36.0,29.90,NNE,13,0.0,0.0,93,0.00,,,0.00,weatherlink.com 1.10,2013-02-16 12:17:00,
2013-02-16 07:32:00,39.0,37.0,29.91,NNW,332,0.0,1.0,93,0.00,,,0.00,weatherlink.com 1.10,2013-02-16 12:32:00,
2013-02-16 07:47:00,39.3,38.0,29.91,NNE,16,0.0,1.0,93,0.00,,,0.00,weatherlink.com 1.10,2013-02-16 12:47:00,
2013-02-16 08:02:00,40.3,39.0,29.91,NNE,18,1.0,2.0,93,0.00,,,0.00,weatherlink.com 1.10,2013-02-16 13:02:00,
2013-02-16 08:17:00,41.2,39.0,29.91,NNE,16,1.0,4.0,93,0.00,,,0.00,weatherlink.com 1.10,2013-02-16 13:17:00,
2013-02-16 08:32:00,41.8,40.0,29.90,North,3,1.0,3.0,93,0.00,,,0.00,weatherlink.com 1.10,2013-02-16 13:32:00,
2013-02-16 08:47:00,42.5,41.0,29.90,NE,39,0.0,4.0,93,0.00,,,0.00,weatherlink.com 1.10,2013-02-16 13:47:00,
2013-02-16 09:02:00,43.2,42.0,29.90,WSW,243,0.0,3.0,94,0.00,,,0.00,weatherlink.com 1.10,2013-02-16 14:02:00,
2013-02-16 09:17:00,43.5,42.0,29.89,North,354,0.0,4.0,93,0.00,,,0.00,weatherlink.com 1.10,2013-02-16 14:17:00,
2013-02-16 09:32:00,43.7,42.0,29.89,NW,316,0.0,3.0,93,0.00,,,0.00,weatherlink.com 1.10,2013-02-16 14:32:00,
2013-02-16 09:47:00,44.0,42.0,29.89,ESE,102,1.0,4.0,93,0.00,,,0.00,weatherlink.com 1.10,2013-02-16 14:47:00,
2013-02-16 10:02:00,44.5,42.0,29.89,ENE,77,1.0,5.0,92,0.00,,,0.00,weatherlink.com 1.10,2013-02-16 15:02:00,
2013-02-16 10:17:00,44.8,43.0,29.89,West,281,0.0,5.0,92,0.00,,,0.00,weatherlink.com 1.10,2013-02-16 15:17:00,
2013-02-16 10:32:00,45.1,42.0,29.89,SE,135,1.0,3.0,90,0.00,,,0.00,weatherlink.com 1.10,2013-02-16 15:32:00,
2013-02-16 10:47:00,45.8,43.0,29.88,NNW,332,2.0,3.0,89,0.00,,,0.00,weatherlink.com 1.10,2013-02-16 15:47:00,
2013-02-16 11:02:00,46.5,44.0,29.87,East,89,0.0,3.0,89,0.00,,,0.00,weatherlink.com 1.10,2013-02-16 16:02:00,
2013-02-16 11:17:00,46.7,43.0,29.87,East,98,2.0,7.0,87,0.00,,,0.00,weatherlink.com 1.10,2013-02-16 16:17:00,
2013-02-16 11:32:00,46.9,44.0,29.87,East,91,2.0,9.0,88,0.00,,,0.00,weatherlink.com 1.10,2013-02-16 16:32:00,
2013-02-16 11:47:00,46.9,43.0,29.86,East,87,6.0,9.0,87,0.00,,,0.00,weatherlink.com 1.10,2013-02-16 16:47:00,
2013-02-16 12:02:00,46.9,43.0,29.86,NE,38,3.0,10.0,87,0.00,,,0.00,weatherlink.com 1.10,2013-02-16 17:02:00,
2013-02-16 12:17:00,46.7,43.0,29.85,NE,43,3.0,10.0,86,0.00,,,0.00,weatherlink.com 1.10,2013-02-16 17:17:00,
2013-02-16 12:33:00,46.9,43.0,29.84,East,93,6.0,9.0,87,0.00,,,0.00,weatherlink.com 1.10,2013-02-16 17:33:00,
2013-02-16 12:47:00,47.2,43.0,29.82,ENE,74,3.0,12.0,86,0.00,,,0.00,weatherlink.com 1.10,2013-02-16 17:47:00,
2013-02-16 13:02:00,48.1,44.0,29.81,NE,56,3.0,10.0,85,0.00,,,0.00,weatherlink.com 1.10,2013-02-16 18:02:00,
2013-02-16 13:17:00,48.3,44.0,29.80,East,95,3.0,8.0,86,0.00,,,0.00,weatherlink.com 1.10,2013-02-16 18:17:00,
2013-02-16 13:33:00,48.1,44.0,29.79,East,86,10.0,10.0,85,0.00,,,0.00,weatherlink.com 1.10,2013-02-16 18:33:00,
2013-02-16 13:47:00,48.3,44.0,29.77,East,80,4.0,10.0,86,0.00,,,0.00,weatherlink.com 1.10,2013-02-16 18:47:00,
2013-02-16 14:03:00,48.9,45.0,29.77,East,93,7.0,8.0,85,0.00,,,0.00,weatherlink.com 1.10,2013-02-16 19:03:00,
2013-02-16 14:18:00,48.9,45.0,29.76,ENE,78,3.0,7.0,85,0.00,,,0.00,weatherlink.com 1.10,2013-02-16 19:18:00,
2013-02-16 14:33:00,49.0,44.0,29.75,North,4,0.0,3.0,82,0.00,,,0.00,weatherlink.com 1.10,2013-02-16 19:33:00,
2013-02-16 14:48:00,49.6,43.0,29.74,NE,41,1.0,4.0,79,0.00,,,0.00,weatherlink.com 1.10,2013-02-16 19:48:00,
2013-02-16 15:03:00,49.4,43.0,29.73,NNE,22,2.0,4.0,78,0.00,,,0.00,weatherlink.com 1.10,2013-02-16 20:03:00,
2013-02-16 15:18:00,49.2,43.0,29.72,NNE,32,0.0,3.0,78,0.00,,,0.00,weatherlink.com 1.10,2013-02-16 20:18:00,
2013-02-16 15:33:00,48.6,42.0,29.72,WNW,302,1.0,3.0,79,0.00,,,0.00,weatherlink.com 1.10,2013-02-16 20:33:00,
2013-02-16 15:48:00,48.1,42.0,29.72,NNW,340,0.0,4.0,79,0.00,,,0.00,weatherlink.com 1.10,2013-02-16 20:48:00,
2013-02-16 16:03:00,47.7,42.0,29.71,North,352,2.0,2.0,81,0.00,,,0.00,weatherlink.com 1.10,2013-02-16 21:03:00,
2013-02-16 16:18:00,46.9,42.0,29.72,West,281,2.0,2.0,83,0.00,,,0.00,weatherlink.com 1.10,2013-02-16 21:18:00,
2013-02-16 16:33:00,45.1,41.0,29.72,West,273,2.0,6.0,86,0.03,,,0.03,weatherlink.com 1.10,2013-02-16 21:33:00,
2013-02-16 16:48:00,42.6,40.0,29.73,WNW,298,1.0,10.0,90,0.04,,,0.04,weatherlink.com 1.10,2013-02-16 21:48:00,
2013-02-16 17:03:00,41.1,39.0,29.73,NW,315,2.0,7.0,91,0.05,,,0.05,weatherlink.com 1.10,2013-02-16 22:03:00,
2013-02-16 17:18:00,39.9,38.0,29.74,NW,316,4.0,7.0,92,0.05,,,0.05,weatherlink.com 1.10,2013-02-16 22:18:00,
2013-02-16 17:33:00,39.1,37.0,29.75,WNW,285,4.0,7.0,93,0.05,,,0.08,weatherlink.com 1.10,2013-02-16 22:33:00,
2013-02-16 17:48:00,37.5,35.0,29.77,NW,304,2.0,8.0,92,0.06,,,0.10,weatherlink.com 1.10,2013-02-16 22:48:00,
2013-02-16 18:03:00,36.1,35.0,29.77,NW,319,4.0,9.0,94,0.07,,,0.12,weatherlink.com 1.10,2013-02-16 23:03:00,
2013-02-16 18:18:00,35.0,34.0,29.77,West,276,1.0,7.0,94,0.10,,,0.15,weatherlink.com 1.10,2013-02-16 23:18:00,
2013-02-16 18:33:00,34.5,33.0,29.77,WNW,293,3.0,7.0,94,0.09,,,0.17,weatherlink.com 1.10,2013-02-16 23:33:00,
2013-02-16 18:48:00,34.1,33.0,29.78,North,4,1.0,4.0,95,0.08,,,0.18,weatherlink.com 1.10,2013-02-16 23:48:00,
2013-02-16 19:03:00,33.8,33.0,29.79,WNW,284,0.0,7.0,95,0.06,,,0.18,weatherlink.com 1.10,2013-02-17 00:03:00,
2013-02-16 19:18:00,33.9,33.0,29.80,NW,309,2.0,7.0,95,0.04,,,0.19,weatherlink.com 1.10,2013-02-17 00:18:00,
2013-02-16 19:34:00,33.7,33.0,29.78,WNW,303,1.0,6.0,95,0.02,,,0.19,weatherlink.com 1.10,2013-02-17 00:34:00,
2013-02-16 19:48:00,33.6,33.0,29.79,WNW,303,0.0,6.0,96,0.01,,,0.19,weatherlink.com 1.10,2013-02-17 00:48:00,
2013-02-16 20:03:00,33.6,33.0,29.80,NE,41,1.0,4.0,96,0.02,,,0.20,weatherlink.com 1.10,2013-02-17 01:03:00,
2013-02-16 20:18:00,33.5,33.0,29.79,WNW,302,1.0,3.0,96,0.01,,,0.20,weatherlink.com 1.10,2013-02-17 01:18:00,
2013-02-16 20:33:00,33.5,33.0,29.78,WSW,250,0.0,4.0,96,0.02,,,0.21,weatherlink.com 1.10,2013-02-17 01:33:00,
2013-02-16 20:49:00,33.5,33.0,29.78,WNW,290,0.0,5.0,96,0.02,,,0.21,weatherlink.com 1.10,2013-02-17 01:49:00,
2013-02-16 21:03:00,33.6,33.0,29.80,WNW,284,0.0,2.0,96,0.02,,,0.22,weatherlink.com 1.10,2013-02-17 02:03:00,
2013-02-16 21:18:00,33.9,33.0,29.81,NNW,332,1.0,3.0,96,0.02,,,0.22,weatherlink.com 1.10,2013-02-17 02:18:00,
2013-02-16 21:33:00,33.9,33.0,29.82,WNW,297,1.0,6.0,96,0.01,,,0.22,weatherlink.com 1.10,2013-02-17 02:33:00,
2013-02-16 21:49:00,33.8,33.0,29.82,WNW,287,1.0,4.0,96,0.02,,,0.23,weatherlink.com 1.10,2013-02-17 02:49:00,
2013-02-16 22:03:00,33.9,33.0,29.82,WNW,283,1.0,5.0,96,0.01,,,0.23,weatherlink.com 1.10,2013-02-17 03:03:00,
2013-02-16 22:19:00,34.0,33.0,29.82,West,280,3.0,4.0,96,0.01,,,0.23,weatherlink.com 1.10,2013-02-17 03:19:00,
2013-02-16 22:33:00,33.9,33.0,29.83,WNW,283,5.0,6.0,96,0.01,,,0.23,weatherlink.com 1.10,2013-02-17 03:33:00,
2013-02-16 22:49:00,33.9,33.0,29.82,NW,326,2.0,9.0,96,0.00,,,0.23,weatherlink.com 1.10,2013-02-17 03:49:00,
2013-02-16 23:03:00,33.9,33.0,29.83,WNW,287,1.0,8.0,96,0.00,,,0.23,weatherlink.com 1.10,2013-02-17 04:03:00,
2013-02-16 23:18:00,33.9,33.0,29.83,West,278,2.0,4.0,96,0.00,,,0.23,weatherlink.com 1.10,2013-02-17 04:18:00,